Weather in Varnamo

Sweden     57°11′17″N   14°02′37″E
temp.,
°C
wind,
m/s
gust,
m/s
humid.,
%
clouds,
%
prec.,
mm/h
press.,
hPa
HPBL,
m
25 february, thu
thu2501:00+6sw51592100 0.0 1022581
04:00+6sw41392100 0.0 1020570
07:00+6sw41291100 0.0 1020448
10:00+8sw51282100 0.0 1018561
13:00+11sw61376100 0.0 1017815
16:00+8wsw5138995 0.1 1016937
19:00+7wsw6128498 0.2 1017957
22:00+4w6148054 0.0 1018961
26 february, fri
fri2601:00+5w7158373 0.0 10191155
04:00+5w71682100 0.0 10171180
07:00+5w71382100 0.0 10171080
10:00+6w7147242 0.0 1018923
13:00+8wnw7126321 0.0 10181236
16:00+7wnw510660 0.0 10181016
19:00+4nw311830 0.0 1021457
22:00+3nnw311750 0.0 1024376
27 february, sat
sat2701:00+1nnw310770 0.0 1027288
04:000nnw27790 0.0 1029185
07:000nnw25790 0.0 1030119
10:00+4n38580 0.0 1031548
13:00+8nnw24500 0.0 1032859
16:00+7w256011 0.0 1031340
19:00+2sw267649 0.0 1031156
22:00+1sw2597100 0.0 1031150
28 february, sun
sun2801:00+1sw2298100 0.0 103158
04:00+2nw1198100 0.0 103123
07:00+2nne2592100 0.0 1032185
10:00+4nne238123 0.0 1033294
13:00+9nne135411 0.0 1034501
16:00+9nw12590 0.0 103439
19:00+4nw11740 0.0 103422
22:00+3sw11790 0.0 103522
1 march, mon
mon101:00+2sw23840 0.0 103533
04:00+1wsw23910 0.0 103467
07:000sw28940 0.0 1034190
10:00+5sw37753 0.0 1033348
13:00+8wsw49603 0.0 1033521
16:00+7wsw410630 0.0 1032503
19:00+2sw38860 0.0 1031277
22:00+1sw29940 0.0 1031231